Starlink 32921

operational
NORAD ID: 62920 Int'l Des: 2025-027 Owner: SPXS Country: US Constellation: starlink
LEOCIRCULAR

Über Starlink 32921

Beschreibung wird geladen...

Live-Position

3D-Globus wird geladen...

Nächste Überflüge

Höhenverlauf

Altitude vs Time

uPlot chart will show altitude changes over time

Zweizeiliger Elementsatz

1 62920U 25027P 25303.56935524 .00034973 00000-0 12738-2 0 9996
2 62920 42.9985 143.5860 0000596 257.0508 103.0277 15.27594777 41641
Epoch: 30. Okt. 2025 • Age: 20 hours

Aktueller Status

Höhe 495.7 km
Geschwindigkeit 7.62 km/s
Subsatellitenpunkt -43.02°S, 141.46°W
Startdatum 8. Feb. 2025
Alter 0.7 years
Typ internet

Technische Details

Klassifizierung Payload
Masse 730.00 kg
Trockenmasse 700.00 kg
Gesamtmasse 730.00 kg
Länge 0.30 m
Durchmesser 4.10 m
Spannweite 29.00 m
Form Box + pan
Hersteller SPXS
Bus-Typ Starlink V2M
Phasenstatus In Orbit
Besitzer/Staat SPXS/US

Große Konstellationen

Loading constellations...